RH
67 71 68 60 58 57 58 55 53 61 56 64 60 57 53 54 54 53 48 48 53 55 58 63 59 52 61 70 46 58 69 89 99 100 100 88 30 6 9 34 92 100 100 100
57 63 62 62 68 66 68 72 68 64 65 64 53 47 49 58 53 50 59 62 66 63 59 57 52 50 56 46 55 100 100 100 100 76 44 23 6 11 53 100 100 100 100 100
65 63 61 66 63 72 69 72 72 63 55 50 52 55 58 61 59 61 61 60 53 48 50 43 43 51 71 83 100 100 98 48 59 60 31 5 15 58 100 100 100 100 100 100
65 67 66 78 65 64 65 69 76 64 57 55 54 52 57 62 55 60 49 48 49 44 39 44 66 81 100 100 100 97 79 53 91 87 8 21 74 99 97 99 100 100 100 98
63 67 68 74 80 75 67 59 66 63 60 57 50 38 52 65 58 52 51 52 49 48 47 62 83 92 99 95 90 92 96 49 51 14 50 100 98 98 100 98 98 98 97 91
70 79 69 81 83 77 68 57 57 56 55 51 53 44 41 43 49 48 45 50 46 41 56 100 100 100 100 100 100 98 55 30 20 60 87 80 82 86 88 90 67 32 22 22
86 81 70 80 82 75 61 52 50 60 59 55 49 49 46 51 72 57 45 40 40 54 98 100 100 100 100 90 79 45 22 25 62 80 77 80 83 75 37 25 25 24 21 17
76 84 81 80 76 66 63 60 72 70 63 56 63 76 64 58 60 53 42 33 41 72 100 100 100 100 96 54 31 24 28 76 84 88 88 77 35 26 24 18 15 14 14 16
72 75 91 85 82 73 73 76 74 70 62 94 83 85 79 59 43 36 26 41 99 100 100 100 65 48 42 31 26 35 75 88 94 91 49 29 25 18 15 14 17 20 24 28
65 78 84 81 89 84 96 90 82 76 70 66 79 94 51 39 29 16 22 34 86 100 81 40 41 35 30 26 28 72 89 95 82 39 29 21 16 15 19 23 27 30 33 35
70 77 72 78 79 84 87 87 82 71 64 59 46 39 32 15 9 22 44 82 69 45 39 35 32 30 27 29 74 89 95 79 41 26 20 16 18 21 29 37 40 40 51 69
68 70 80 73 73 77 82 77 59 39 37 42 36 22 9 10 21 33 36 43 46 39 29 31 31 27 28 88 95 95 80 38 26 21 18 19 21 35 52 61 77 89 100 95
73 78 81 79 78 81 70 58 50 54 52 35 13 10 14 20 27 38 41 42 34 25 30 32 27 26 78 99 98 85 42 28 24 20 21 24 30 38 46 99 100 94 97 100
86 78 76 76 70 62 55 56 60 47 22 14 15 20 26 34 38 42 46 32 22 27 31 26 26 75 100 100 92 48 34 28 25 22 23 29 36 45 81 98 100 100 100 100
78 80 76 65 60 61 63 53 36 24 17 19 26 33 35 37 47 43 25 22 26 28 28 24 58 99 100 97 58 44 35 32 28 23 24 30 38 86 95 99 100 100 100 94
75 70 68 67 64 58 47 30 20 21 25 30 35 41 49 47 31 23 26 28 26 25 26 40 99 100 100 63 48 45 40 36 34 24 24 30 64 86 94 100 100 100 99 100
72 65 60 60 50 37 24 23 28 31 38 47 46 42 38 23 22 29 25 21 24 31 60 100 100 100 78 43 52 52 48 43 42 29 24 37 65 76 89 100 100 100 100 100
58 62 58 36 23 20 19 27 39 42 46 45 41 28 21 23 23 16 17 23 40 91 100 100 100 100 54 31 49 55 60 54 52 40 26 36 60 69 80 95 96 100 100 100
65 39 25 22 23 30 36 42 46 44 43 33 22 26 26 20 17 22 28 49 100 100 100 100 100 85 39 24 29 43 50 65 64 57 33 32 52 62 72 86 95 100 100 100
28 25 23 29 38 44 48 51 44 36 23 24 30 23 19 24 32 40 67 100 100 100 100 100 100 66 32 25 30 56 50 65 73 73 52 32 38 54 62 80 91 96 100 100
26 28 33 44 45 40 40 36 25 20 28 28 21 22 32 41 55 72 99 100 98 100 100 100 100 56 28 28 35 76 60 62 82 81 79 50 35 35 45 60 79 90 98 100
38 46 40 34 34 32 25 23 30 31 24 22 24 38 47 54 58 84 100 98 100 100 100 100 99 51 46 38 67 90 63 69 87 85 87 84 59 42 36 38 53 75 88 95
36 33 32 30 27 25 25 32 26 23 22 29 38 48 44 43 55 93 95 92 97 100 100 100 100 92 69 68 94 96 68 89 94 92 88 90 89 75 58 46 40 44 71 87
34 30 29 34 35 36 30 22 22 28 31 50 44 46 41 40 76 88 89 94 97 100 100 100 100 100 100 100 100 85 94 99 96 90 89 88 90 93 86 79 60 47 46 67
30 33 39 39 33 26 26 25 27 35 42 49 45 42 39 56 88 88 91 91 99 100 100 100 100 100 100 100 96 96 88 92 91 90 84 85 82 84 93 93 88 77 57 54
42 39 33 31 35 36 31 22 29 36 32 30 40 40 35 66 84 92 95 98 100 100 100 99 100 100 100 99 94 76 74 84 88 87 83 80 75 75 85 92 91 90 84 63
35 41 43 42 42 39 32 46 50 33 27 19 21 31 29 47 90 98 100 100 99 92 96 100 100 100 99 95 92 80 76 81 88 88 84 80 75 74 79 82 81 85 92 80
Wind_Speed
32 32 32 28 32 35 39 38 40 38 39 40 43 45 48 45 49 52 58 60 61 63 66 66 69 70 72 76 80 81 79 81 84 90 100 99 97 86 73 56 42 40 41 44
34 39 39 32 33 38 37 35 37 41 42 43 45 46 46 46 55 56 58 61 62 64 68 69 71 73 75 76 71 72 77 90 95 101 97 94 86 66 51 42 42 44 46 48
39 37 38 28 29 37 38 38 40 43 44 45 44 47 49 50 55 57 62 65 66 66 68 71 72 75 76 78 76 78 87 90 87 89 97 78 61 50 46 44 44 46 47 47
49 43 40 24 32 40 41 42 41 46 46 48 51 52 52 55 59 62 66 68 70 73 77 76 78 78 79 80 83 92 91 89 88 96 79 60 54 50 48 46 46 45 45 45
46 48 46 32 35 40 43 43 45 46 49 52 55 58 57 60 64 69 72 75 77 81 82 83 82 81 80 85 93 93 92 95 94 72 58 53 52 51 49 47 48 49 51 52
44 45 47 37 41 44 47 48 50 52 55 58 60 62 63 67 72 75 78 79 82 82 78 76 83 81 85 87 91 89 94 91 69 56 54 54 52 50 51 53 54 54 54 55
38 42 41 41 44 47 48 53 54 59 62 64 66 68 70 71 70 80 82 83 81 79 78 81 83 83 85 98 94 89 83 64 55 55 56 54 55 57 57 57 58 58 56 55
40 39 38 41 44 48 51 56 59 62 66 70 69 70 74 77 78 82 84 84 80 78 81 83 86 88 91 92 85 74 62 53 56 55 54 57 59 61 61 59 56 53 50 47
41 42 40 46 50 54 58 61 63 65 69 64 66 71 79 82 84 82 81 76 75 80 78 83 86 83 84 81 71 61 53 55 53 55 57 61 62 60 55 52 50 46 43 38
47 43 47 50 52 58 58 63 68 70 73 69 70 78 83 83 83 80 76 74 75 76 82 81 82 81 76 67 57 50 52 52 53 57 60 60 55 52 49 47 44 40 38 37
51 51 55 59 61 62 67 70 73 72 71 74 76 77 79 80 79 76 74 74 78 79 78 79 77 72 65 56 48 48 49 50 54 57 56 50 48 47 45 45 42 39 35 32
55 58 60 64 67 70 75 77 74 73 75 77 77 79 80 79 75 74 76 75 74 75 76 72 69 61 51 44 44 45 46 51 52 52 48 46 44 40 45 44 39 36 33 26
58 61 64 69 72 76 77 76 75 77 79 79 78 80 79 75 74 75 75 74 75 72 66 62 57 49 40 42 42 41 46 47 48 46 44 43 42 42 41 39 37 32 24 20
64 66 70 72 75 76 75 77 80 79 78 79 77 74 73 74 75 75 74 74 70 63 59 54 48 37 39 38 37 41 42 44 45 44 42 44 43 39 37 35 31 26 24 19
68 71 72 72 73 75 78 77 76 77 77 74 73 74 76 76 75 75 75 71 65 59 54 48 35 36 36 33 36 38 39 41 43 42 42 41 39 37 36 33 28 25 23 12
69 71 72 73 74 76 76 77 76 74 73 73 74 74 74 76 77 76 73 71 66 56 43 33 31 32 30 31 35 35 36 39 41 41 40 38 35 36 35 30 28 24 18 7
72 72 72 74 74 75 74 72 72 72 71 71 74 75 76 76 73 74 73 65 50 34 27 25 27 26 26 30 33 34 34 37 39 40 38 35 34 35 33 30 26 21 14 7
72 73 74 73 73 76 76 73 71 71 72 75 76 75 74 74 75 67 53 40 25 20 23 23 25 22 24 29 32 34 35 36 37 37 36 34 33 33 32 30 25 20 14 8
73 72 73 75 75 72 70 71 72 73 73 74 72 72 74 71 61 49 32 18 16 20 21 23 23 20 24 28 32 34 37 37 36 36 35 33 32 31 30 29 25 19 15 10
71 73 73 70 67 68 69 70 72 71 69 68 70 69 62 55 43 26 15 14 17 19 21 25 21 20 25 29 32 35 36 37 36 34 33 31 30 30 28 28 26 20 16 11
70 67 65 65 66 67 68 68 68 66 66 66 65 52 46 37 20 14 13 17 17 20 24 25 20 21 26 29 32 35 35 36 36 34 31 29 29 28 27 26 25 22 18 14
62 62 63 65 66 65 63 63 65 66 63 55 46 40 31 22 19 18 18 19 19 22 26 25 21 23 26 29 33 34 35 35 35 34 31 28 27 27 27 26 25 23 21 16
60 62 63 63 62 61 62 64 64 59 48 42 38 32 26 25 23 21 22 21 22 25 26 25 23 24 26 30 34 33 35 35 35 34 31 28 26 25 25 26 25 24 21 20
61 61 59 59 61 63 63 59 54 44 38 37 35 30 27 26 24 23 23 24 25 26 26 24 24 26 28 31 32 32 34 35 35 33 30 28 27 26 25 25 24 25 23 20
58 57 58 59 59 59 55 51 43 35 36 35 31 27 26 24 24 24 25 25 25 27 25 24 24 26 28 28 28 31 34 35 33 31 29 28 28 28 25 24 24 23 23 21
55 55 54 53 53 52 50 46 37 34 34 28 26 25 25 25 25 24 24 23 24 22 22 24 26 27 24 25 27 30 34 35 32 29 28 28 29 29 26 25 25 24 22 22
49 49 49 48 47 45 44 36 33 31 29 24 24 24 24 23 23 24 23 22 21 22 24 25 25 23 24 26 28 32 35 35 31 29 29 29 30 29 27 28 28 24 22 22
Wind_Direction
303 301 298 300 296 293 297 298 300 303 302 304 306 308 307 307 305 304 303 303 306 306 303 302 302 304 304 303 303 302 304 304 300 299 308 314 316 312 311 309 308 305 299 293
300 295 298 302 294 297 295 296 298 302 305 304 306 306 305 304 302 305 306 306 304 303 304 305 306 303 302 300 305 298 298 302 302 309 312 313 315 314 309 307 303 300 296 294
307 298 296 306 300 291 294 293 298 300 304 306 308 306 306 305 307 307 306 307 307 307 306 305 306 307 303 306 306 300 309 314 314 315 318 315 313 312 309 305 301 298 296 295
305 304 295 309 298 294 296 296 301 302 305 309 309 309 311 312 312 310 309 310 309 310 312 309 309 310 306 306 306 309 318 319 317 315 317 315 315 312 309 306 303 301 299 297
306 303 297 311 292 291 293 296 299 304 310 312 312 314 317 314 311 310 313 314 314 313 313 310 307 308 303 304 310 313 315 319 316 317 317 316 312 311 310 308 306 304 301 298
305 298 299 313 303 303 303 306 307 313 314 316 316 312 311 312 313 313 314 312 311 311 310 303 305 305 308 311 309 313 319 319 318 317 316 314 313 313 312 309 306 302 300 298
296 295 300 302 301 303 307 307 314 313 313 314 312 313 314 314 313 310 311 311 309 309 306 304 306 309 305 311 314 319 322 318 319 318 317 316 315 313 311 308 306 304 302 299
296 296 301 301 302 306 307 310 311 311 311 312 313 311 311 311 309 308 309 309 309 308 307 307 307 309 311 317 321 322 320 320 319 319 318 316 314 313 312 310 309 309 308 308
307 303 303 305 305 306 309 310 309 308 310 306 305 303 306 308 309 308 308 309 304 306 307 308 310 314 317 320 320 318 318 321 321 319 318 316 316 315 315 315 315 315 313 310
300 306 303 302 301 306 309 307 307 308 308 308 303 300 305 306 307 308 308 308 307 306 310 314 315 318 319 320 319 319 319 320 321 320 319 319 320 320 320 320 320 320 317 315
305 305 306 306 306 305 304 306 308 308 305 304 303 304 304 305 307 309 310 309 310 314 315 315 317 318 318 317 318 319 320 322 321 321 322 324 325 325 326 325 325 325 325 321
306 308 307 305 304 303 305 307 307 307 306 306 305 305 306 307 310 309 310 313 315 315 316 316 317 317 317 318 319 321 323 323 324 326 328 329 330 330 332 331 331 332 329 330
306 305 303 302 303 303 305 306 307 304 304 306 306 307 309 309 308 310 313 316 317 316 317 317 317 318 318 319 321 324 324 326 330 332 332 332 332 330 330 333 333 337 338 338
302 301 302 302 302 302 303 303 304 306 306 307 306 306 307 308 310 314 316 315 316 317 316 317 318 317 320 321 324 324 327 333 336 336 335 335 335 335 337 339 338 338 338 336
299 300 300 300 301 303 304 304 304 304 304 303 305 306 309 313 315 314 314 315 316 315 315 315 315 318 320 323 324 327 331 337 341 339 339 337 340 343 344 343 343 343 340 347
298 298 299 300 301 302 302 303 303 304 305 303 307 313 314 313 314 314 314 314 313 311 309 311 314 318 322 324 327 330 334 340 343 342 341 339 344 346 347 348 346 347 348 356
298 300 301 303 304 304 304 302 303 305 309 312 312 313 314 314 314 313 313 312 312 307 307 311 316 319 321 326 332 334 338 341 344 344 343 343 345 348 350 351 352 351 355 3
301 303 304 304 303 301 304 307 307 310 312 313 314 315 314 314 315 315 314 315 313 314 313 314 318 317 319 329 335 339 342 343 343 345 346 344 345 350 352 353 354 356 358 4
303 303 302 301 304 307 307 309 311 312 313 313 314 315 315 316 317 317 315 314 317 316 313 317 317 313 316 328 334 336 341 342 344 346 347 344 345 348 351 355 354 356 354 1
299 299 303 306 307 307 309 309 310 311 313 315 315 315 317 316 316 316 312 310 316 317 317 319 312 310 316 326 331 334 338 341 344 345 346 346 342 347 349 354 355 350 350 348
301 303 304 306 306 306 307 309 311 313 315 315 314 317 319 320 319 312 304 307 315 320 320 318 308 310 314 323 327 330 335 338 341 344 343 345 344 342 344 348 352 351 346 344
303 304 304 303 304 307 310 311 312 313 313 313 315 318 320 317 314 304 301 306 313 318 321 316 306 308 312 320 323 330 333 335 338 341 341 339 341 341 345 342 343 346 344 341
303 303 304 306 309 311 311 311 312 313 314 313 314 315 310 308 305 296 301 301 306 313 316 314 307 309 313 317 324 328 331 333 334 337 338 336 333 335 338 340 339 337 337 339
305 306 308 309 309 309 311 313 313 312 309 313 314 310 304 302 300 298 302 302 303 313 314 312 313 313 315 320 324 328 330 331 332 334 335 334 331 327 328 331 329 334 330 328
305 307 308 308 309 310 311 311 310 304 303 307 307 306 306 301 301 302 304 306 310 313 308 307 310 314 317 321 325 329 329 328 330 331 332 331 330 328 322 321 323 318 324 322
306 307 308 310 310 309 311 310 307 305 305 302 299 303 306 300 300 305 306 308 309 306 308 311 314 317 319 323 327 331 332 330 330 330 330 330 329 327 321 318 318 314 308 313
306 309 311 310 309 309 310 308 307 308 307 303 300 298 299 297 299 305 309 310 310 312 311 314 317 317 319 321 322 330 336 334 331 328 329 330 329 327 322 320 317 310 302 298